IGO343H VABB-VIDP

Flight info

Callsign IGO343H
Flight time 1h 48m
Altitude 39000
Route ANOLI2A ISRIS Q1 UKASO UKASO7C
Aircraft A320/M-SDE3FGHIRWY/LB1

Departure

Time 2026-05-06 11:10
Airport Chhatrapati Shivaji Maharaj International Airport (VABB)

Arrival

Time 2026-05-06 12:59
Airport Indira Gandhi International Airport (VIDP)
Time Latitude Longitude Altitude Speed Heading
2026-05-06 10:21 19.09163 72.85408 28 ft 0 kts 359°
2026-05-06 10:45 19.09151 72.85409 27 ft 3 kts 359°
2026-05-06 10:45 19.09133 72.85408 27 ft 2 kts 347°
2026-05-06 10:45 19.09120 72.85418 27 ft 2 kts 286°
2026-05-06 10:46 19.09120 72.85420 27 ft 0 kts 295°
2026-05-06 10:56 19.09117 72.85426 27 ft 2 kts 266°
2026-05-06 10:57 19.09117 72.85430 27 ft 1 kts 245°
2026-05-06 10:57 19.09117 72.85433 27 ft 1 kts 232°
2026-05-06 10:57 19.09116 72.85430 27 ft 0 kts 242°
2026-05-06 10:58 19.09117 72.85432 27 ft 1 kts 231°
2026-05-06 10:58 19.09116 72.85430 27 ft 0 kts 236°
2026-05-06 10:58 19.09121 72.85442 27 ft 0 kts 267°
2026-05-06 10:59 19.09121 72.85436 27 ft 9 kts 265°
2026-05-06 10:59 19.09118 72.85416 27 ft 4 kts 255°
2026-05-06 10:59 19.09088 72.85404 27 ft 6 kts 196°
2026-05-06 10:59 19.09034 72.85397 26 ft 9 kts 177°
2026-05-06 11:00 19.08976 72.85433 27 ft 11 kts 124°
2026-05-06 11:00 19.08997 72.85483 27 ft 9 kts 38°
2026-05-06 11:00 19.09023 72.85544 27 ft 10 kts 84°
2026-05-06 11:00 19.09028 72.85626 27 ft 13 kts 86°
2026-05-06 11:01 19.09032 72.85729 28 ft 16 kts 89°
2026-05-06 11:01 19.09032 72.85855 28 ft 19 kts 90°
2026-05-06 11:01 19.09034 72.86002 29 ft 21 kts 88°
2026-05-06 11:01 19.09036 72.86163 30 ft 23 kts 90°
2026-05-06 11:02 19.09038 72.86336 32 ft 24 kts 89°
2026-05-06 11:02 19.09040 72.86462 32 ft 9 kts 89°
2026-05-06 11:02 19.09040 72.86478 32 ft 7 kts 89°
2026-05-06 11:02 19.09042 72.86593 33 ft 25 kts 89°
2026-05-06 11:03 19.09047 72.86822 33 ft 34 kts 88°
2026-05-06 11:03 19.09049 72.86953 33 ft 16 kts 89°
2026-05-06 11:03 19.09049 72.87078 34 ft 18 kts 91°
2026-05-06 11:03 19.09049 72.87224 35 ft 21 kts 89°
2026-05-06 11:04 19.09051 72.87300 35 ft 1 kts 89°
2026-05-06 11:04 19.09051 72.87315 35 ft 3 kts 89°
2026-05-06 11:04 19.09052 72.87362 35 ft 11 kts 89°
2026-05-06 11:04 19.09053 72.87414 35 ft 2 kts 89°
2026-05-06 11:05 19.09054 72.87454 36 ft 0 kts 88°
2026-05-06 11:05 19.09055 72.87487 36 ft 9 kts 88°
2026-05-06 11:05 19.09057 72.87584 36 ft 17 kts 88°
2026-05-06 11:05 19.09061 72.87729 37 ft 18 kts 88°
2026-05-06 11:06 19.09018 72.87805 37 ft 0 kts 167°
2026-05-06 11:09 19.08991 72.87811 37 ft 12 kts 167°
2026-05-06 11:09 19.08894 72.87787 35 ft 17 kts 234°
2026-05-06 11:09 19.08882 72.87689 36 ft 0 kts 269°
2026-05-06 11:10 19.08881 72.87547 35 ft 43 kts 270°
2026-05-06 11:10 19.08874 72.86939 35 ft 123 kts 269°
2026-05-06 11:10 19.08874 72.85811 88 ft 182 kts 269°
2026-05-06 11:10 19.08802 72.84393 714 ft 206 kts 266°
2026-05-06 11:11 19.08710 72.82805 1395 ft 228 kts 271°
2026-05-06 11:11 19.08693 72.81053 1961 ft 247 kts 272°
2026-05-06 11:11 19.08697 72.79197 2650 ft 258 kts 272°
2026-05-06 11:11 19.08698 72.77259 3309 ft 269 kts 272°
2026-05-06 11:12 19.08703 72.75255 4044 ft 275 kts 276°
2026-05-06 11:12 19.09283 72.73359 4836 ft 274 kts 308°
2026-05-06 11:12 19.10751 72.72128 5619 ft 273 kts 341°
2026-05-06 11:12 19.12607 72.71962 6350 ft 277 kts 13°
2026-05-06 11:13 19.14307 72.72919 7054 ft 284 kts 44°
2026-05-06 11:13 19.15686 72.74443 7686 ft 291 kts 41°
2026-05-06 11:13 19.17470 72.75422 7910 ft 293 kts 11°
2026-05-06 11:13 19.19502 72.75510 7973 ft 293 kts 354°
2026-05-06 11:14 19.21517 72.75196 7980 ft 293 kts 349°
2026-05-06 11:14 19.23514 72.74796 7985 ft 292 kts 349°
2026-05-06 11:14 19.25531 72.74445 8284 ft 295 kts 351°
2026-05-06 11:14 19.27551 72.74178 9103 ft 299 kts 353°
2026-05-06 11:15 19.29640 72.73978 9824 ft 303 kts 355°
2026-05-06 11:15 19.31755 72.73823 10514 ft 307 kts 354°
2026-05-06 11:15 19.33900 72.73634 11207 ft 312 kts 354°
2026-05-06 11:15 19.36076 72.73523 11909 ft 315 kts
2026-05-06 11:16 19.38257 72.73824 12645 ft 318 kts
2026-05-06 11:16 19.40457 72.74153 13376 ft 320 kts
2026-05-06 11:16 19.42667 72.74486 14060 ft 322 kts
2026-05-06 11:16 19.44856 72.74816 14721 ft 323 kts
2026-05-06 11:17 19.46357 72.75042 15177 ft 323 kts
2026-05-06 11:17 19.49303 72.75485 16103 ft 323 kts
2026-05-06 11:17 19.51521 72.75820 16824 ft 322 kts
2026-05-06 11:17 19.53730 72.76152 17553 ft 320 kts
2026-05-06 11:18 19.55928 72.76484 18263 ft 318 kts
2026-05-06 11:18 19.58110 72.76816 18910 ft 315 kts
2026-05-06 11:18 19.60268 72.77141 19568 ft 312 kts
2026-05-06 11:18 19.62406 72.77462 20241 ft 308 kts
2026-05-06 11:19 19.63805 72.77672 20718 ft 305 kts
2026-05-06 11:19 19.65889 72.77984 21419 ft 300 kts
2026-05-06 11:19 19.68585 72.78390 22371 ft 291 kts
2026-05-06 11:19 19.70562 72.78691 23111 ft 283 kts
2026-05-06 11:20 19.71836 72.78885 23561 ft 277 kts
2026-05-06 11:20 19.74411 72.79271 24026 ft 281 kts
2026-05-06 11:20 19.75696 72.79463 24261 ft 282 kts
2026-05-06 11:20 19.78313 72.79855 24752 ft 285 kts
2026-05-06 11:21 19.79617 72.80049 24995 ft 286 kts
2026-05-06 11:21 19.82240 72.80440 25477 ft 289 kts
2026-05-06 11:21 19.83558 72.80638 25717 ft 290 kts
2026-05-06 11:21 19.86244 72.81047 26199 ft 293 kts
2026-05-06 11:22 19.87581 72.81250 26438 ft 294 kts
2026-05-06 11:22 19.90300 72.81662 26922 ft 296 kts
2026-05-06 11:22 19.92349 72.81972 27267 ft 298 kts
2026-05-06 11:22 19.94382 72.82279 27609 ft 300 kts
2026-05-06 11:23 19.96455 72.82591 27962 ft 302 kts
2026-05-06 11:23 19.98538 72.82906 28315 ft 303 kts
2026-05-06 11:23 20.00628 72.83221 28681 ft 304 kts
2026-05-06 11:23 20.02731 72.83539 29036 ft 306 kts
2026-05-06 11:24 20.04845 72.83860 29393 ft 308 kts
2026-05-06 11:24 20.06970 72.84181 29734 ft 309 kts
2026-05-06 11:24 20.09107 72.84502 30041 ft 311 kts
2026-05-06 11:24 20.11230 72.84821 30307 ft 313 kts
2026-05-06 11:25 20.13394 72.85149 30568 ft 316 kts
2026-05-06 11:25 20.15577 72.85481 30830 ft 318 kts
2026-05-06 11:25 20.17771 72.85814 31097 ft 320 kts
2026-05-06 11:25 20.19977 72.86150 31380 ft 321 kts
2026-05-06 11:26 20.22192 72.86487 31643 ft 323 kts
2026-05-06 11:26 20.24422 72.86824 31900 ft 324 kts
2026-05-06 11:26 20.26662 72.87161 32152 ft 326 kts
2026-05-06 11:26 20.28917 72.87501 32409 ft 328 kts
2026-05-06 11:27 20.31155 72.87845 32662 ft 330 kts
2026-05-06 11:27 20.33442 72.88198 32808 ft 335 kts
2026-05-06 11:27 20.35771 72.88552 32932 ft 341 kts
2026-05-06 11:27 20.38139 72.88907 33061 ft 347 kts
2026-05-06 11:28 20.40547 72.89266 33184 ft 352 kts
2026-05-06 11:28 20.42998 72.89632 33294 ft 358 kts
2026-05-06 11:28 20.45482 72.90006 33436 ft 364 kts
2026-05-06 11:28 20.48000 72.90390 33606 ft 368 kts
2026-05-06 11:29 20.50546 72.90779 33817 ft 370 kts
2026-05-06 11:29 20.53070 72.91165 34021 ft 373 kts
2026-05-06 11:29 20.55641 72.91558 34231 ft 374 kts
2026-05-06 11:29 20.58223 72.91954 34439 ft 376 kts
2026-05-06 11:30 20.60825 72.92353 34641 ft 379 kts
2026-05-06 11:30 20.63443 72.92754 34866 ft 380 kts
2026-05-06 11:30 20.66065 72.93153 35088 ft 382 kts
2026-05-06 11:30 20.68697 72.93555 35301 ft 383 kts
2026-05-06 11:31 20.71345 72.93957 35511 ft 385 kts
2026-05-06 11:31 20.74002 72.94363 35695 ft 388 kts
2026-05-06 11:31 20.76654 72.95008 35886 ft 394 kts 12°
2026-05-06 11:31 20.79216 72.95987 36078 ft 399 kts 16°
2026-05-06 11:32 20.81814 72.97041 36261 ft 400 kts 15°
2026-05-06 11:32 20.84426 72.98096 36460 ft 402 kts 15°
2026-05-06 11:32 20.87050 72.99153 36658 ft 404 kts 15°
2026-05-06 11:32 20.89686 73.00214 36825 ft 406 kts 15°
2026-05-06 11:33 20.92339 73.01281 37010 ft 408 kts 15°
2026-05-06 11:33 20.95002 73.02351 37215 ft 410 kts 15°
2026-05-06 11:33 20.97681 73.03427 37379 ft 412 kts 15°
2026-05-06 11:33 21.00334 73.04493 37561 ft 414 kts 15°
2026-05-06 11:34 21.03032 73.05579 37744 ft 415 kts 15°
2026-05-06 11:34 21.05744 73.06672 37900 ft 418 kts 15°
2026-05-06 11:34 21.08475 73.07772 38068 ft 420 kts 15°
2026-05-06 11:34 21.11214 73.08874 38243 ft 421 kts 15°
2026-05-06 11:35 21.13964 73.09982 38419 ft 423 kts 15°
2026-05-06 11:35 21.16723 73.11095 38578 ft 424 kts 15°
2026-05-06 11:35 21.19490 73.12214 38724 ft 426 kts 15°
2026-05-06 11:36 21.25056 73.14459 38776 ft 436 kts 15°
2026-05-06 11:36 21.30813 73.16781 38775 ft 448 kts 15°
2026-05-06 11:37 21.36715 73.19174 38765 ft 459 kts 16°
2026-05-06 11:37 21.42771 73.21630 38767 ft 471 kts 16°
2026-05-06 11:38 21.48938 73.24127 38769 ft 483 kts 16°
2026-05-06 11:38 21.55300 73.26704 38767 ft 494 kts 16°
2026-05-06 11:38 21.58523 73.28010 39001 ft 492 kts 16°
2026-05-06 11:39 21.61631 73.29281 39693 ft 466 kts 16°
2026-05-06 11:39 21.64584 73.30515 40412 ft 446 kts 15°
2026-05-06 11:39 21.67433 73.31690 41165 ft 432 kts 15°
2026-05-06 11:39 21.70214 73.32821 40485 ft 438 kts 15°
2026-05-06 11:40 21.73104 73.33979 39480 ft 446 kts 15°
2026-05-06 11:40 21.76032 73.35152 39071 ft 451 kts 15°
2026-05-06 11:40 21.78989 73.36342 38870 ft 456 kts 15°
2026-05-06 11:40 21.81970 73.37550 38721 ft 458 kts 15°
2026-05-06 11:41 21.84954 73.38767 38757 ft 460 kts 15°
2026-05-06 11:41 21.90949 73.41219 38750 ft 461 kts 15°
2026-05-06 11:42 21.96910 73.43659 38745 ft 461 kts 15°
2026-05-06 11:42 22.02903 73.46105 38739 ft 460 kts 15°
2026-05-06 11:43 22.08894 73.48551 38743 ft 460 kts 15°
2026-05-06 11:43 22.14886 73.51007 38741 ft 461 kts 15°
2026-05-06 11:44 22.23835 73.54677 38751 ft 461 kts 15°
2026-05-06 11:44 22.29832 73.57131 38762 ft 461 kts 15°
2026-05-06 11:45 22.35824 73.59594 38759 ft 461 kts 15°
2026-05-06 11:45 22.41810 73.62059 38759 ft 460 kts 15°
2026-05-06 11:46 22.47759 73.64506 38760 ft 460 kts 15°
2026-05-06 11:46 22.53744 73.66978 38776 ft 460 kts 14°
2026-05-06 11:47 22.59728 73.69449 38786 ft 460 kts 14°
2026-05-06 11:47 22.65712 73.71919 38786 ft 460 kts 14°
2026-05-06 11:48 22.71692 73.74383 38781 ft 460 kts 14°
2026-05-06 11:48 22.77668 73.76847 38778 ft 460 kts 14°
2026-05-06 11:49 22.83603 73.79293 38788 ft 460 kts 14°
2026-05-06 11:49 22.89580 73.81772 38787 ft 460 kts 14°
2026-05-06 11:50 22.95552 73.84258 38803 ft 459 kts 14°
2026-05-06 11:50 23.01518 73.86734 38797 ft 459 kts 14°
2026-05-06 11:51 23.07436 73.89183 38797 ft 458 kts 14°
2026-05-06 11:51 23.13392 73.91651 38794 ft 458 kts 14°
2026-05-06 11:52 23.19339 73.94135 38800 ft 458 kts 14°
2026-05-06 11:52 23.25250 73.96603 38820 ft 458 kts 14°
2026-05-06 11:53 23.31191 73.99071 38813 ft 457 kts 14°
2026-05-06 11:53 23.37126 74.01551 38815 ft 457 kts 14°
2026-05-06 11:54 23.42056 74.03613 38805 ft 457 kts 14°
2026-05-06 11:54 23.46986 74.05678 38804 ft 457 kts 14°
2026-05-06 11:55 23.54885 74.08973 38814 ft 457 kts 14°
2026-05-06 11:55 23.60822 74.11455 38829 ft 457 kts 14°
2026-05-06 11:56 23.66756 74.13951 38819 ft 457 kts 14°
2026-05-06 11:56 23.72683 74.16435 38818 ft 456 kts 14°
2026-05-06 11:57 23.78572 74.18906 38818 ft 456 kts 14°
2026-05-06 11:57 23.84490 74.21398 38822 ft 456 kts 14°
2026-05-06 11:58 23.90404 74.23897 38842 ft 456 kts 13°
2026-05-06 11:58 23.96315 74.26387 38842 ft 455 kts 13°
2026-05-06 11:59 24.02189 74.28858 38840 ft 455 kts 13°
2026-05-06 11:59 24.08099 74.31344 38840 ft 455 kts 13°
2026-05-06 12:00 24.12049 74.33011 38834 ft 455 kts 13°
2026-05-06 12:00 24.15958 74.34667 38839 ft 455 kts 13°
2026-05-06 12:01 24.19903 74.36343 38845 ft 454 kts 13°
2026-05-06 12:01 24.27748 74.39675 38856 ft 454 kts 13°
2026-05-06 12:02 24.35592 74.43001 38846 ft 454 kts 13°
2026-05-06 12:02 24.40487 74.45076 38843 ft 454 kts 13°
2026-05-06 12:03 24.45386 74.47155 38841 ft 454 kts 13°
2026-05-06 12:03 24.52240 74.50071 38840 ft 454 kts 13°
2026-05-06 12:04 24.55220 74.51098 38838 ft 442 kts
2026-05-06 12:04 24.58237 74.51330 38838 ft 429 kts 351°
2026-05-06 12:04 24.66097 74.50597 38834 ft 427 kts 349°
2026-05-06 12:05 24.73064 74.50572 38832 ft 435 kts 355°
2026-05-06 12:05 24.76093 74.50786 38834 ft 436 kts 356°
2026-05-06 12:06 24.85174 74.51536 38850 ft 436 kts 356°
2026-05-06 12:06 24.89183 74.51796 38847 ft 435 kts 355°
2026-05-06 12:07 24.97231 74.52235 38842 ft 435 kts 355°
2026-05-06 12:07 25.00253 74.52400 38844 ft 435 kts 355°
2026-05-06 12:08 25.09320 74.52933 38836 ft 435 kts 355°
2026-05-06 12:08 25.14346 74.53632 38865 ft 447 kts
2026-05-06 12:09 25.17305 74.54816 38856 ft 458 kts 17°
2026-05-06 12:09 25.26900 74.59854 38834 ft 460 kts 17°
2026-05-06 12:10 25.31747 74.62387 38832 ft 460 kts 17°
2026-05-06 12:10 25.38478 74.65909 38828 ft 461 kts 17°
2026-05-06 12:11 25.43289 74.68432 38827 ft 460 kts 17°
2026-05-06 12:11 25.49081 74.71462 38851 ft 460 kts 17°
2026-05-06 12:12 25.55804 74.74987 38842 ft 460 kts 17°
2026-05-06 12:12 25.61587 74.78025 38837 ft 460 kts 17°
2026-05-06 12:13 25.67369 74.81068 38832 ft 460 kts 17°
2026-05-06 12:13 25.73145 74.84110 38830 ft 460 kts 17°
2026-05-06 12:14 25.75998 74.85611 38834 ft 460 kts 17°
2026-05-06 12:14 25.84670 74.90186 38840 ft 460 kts 17°
2026-05-06 12:15 25.90449 74.93244 38836 ft 460 kts 17°
2026-05-06 12:15 25.96227 74.96305 38831 ft 460 kts 17°
2026-05-06 12:16 26.01967 74.99341 38831 ft 460 kts 17°
2026-05-06 12:16 26.07749 75.02393 38830 ft 460 kts 17°
2026-05-06 12:17 26.13509 75.05455 38830 ft 457 kts 17°
2026-05-06 12:17 26.19248 75.08512 38828 ft 457 kts 17°
2026-05-06 12:18 26.24961 75.11541 38818 ft 458 kts 17°
2026-05-06 12:18 26.30715 75.14605 38819 ft 459 kts 17°
2026-05-06 12:19 26.36481 75.17683 38829 ft 460 kts 17°
2026-05-06 12:19 26.42245 75.20766 38857 ft 460 kts 17°
2026-05-06 12:20 26.47976 75.23830 38838 ft 459 kts 17°
2026-05-06 12:20 26.53739 75.26905 38833 ft 459 kts 17°
2026-05-06 12:21 26.59494 75.29982 38833 ft 459 kts 17°
2026-05-06 12:21 26.65243 75.33065 38830 ft 458 kts 18°
2026-05-06 12:22 26.68154 75.34448 38823 ft 446 kts
2026-05-06 12:22 26.71149 75.34832 38844 ft 426 kts 350°
2026-05-06 12:22 26.76886 75.33918 38834 ft 418 kts 343°
2026-05-06 12:23 26.82656 75.32935 38818 ft 424 kts 348°
2026-05-06 12:23 26.88608 75.32834 38816 ft 431 kts 354°
2026-05-06 12:24 26.94608 75.33097 38811 ft 431 kts 354°
2026-05-06 12:24 27.00602 75.33261 38844 ft 431 kts 354°
2026-05-06 12:25 27.06544 75.34631 38830 ft 453 kts 15°
2026-05-06 12:25 27.09342 75.36350 38825 ft 466 kts 28°
2026-05-06 12:25 27.11905 75.38632 38822 ft 471 kts 32°
2026-05-06 12:26 27.16974 75.43311 38833 ft 472 kts 32°
2026-05-06 12:26 27.22056 75.47988 38824 ft 472 kts 32°
2026-05-06 12:27 27.27120 75.52620 38821 ft 473 kts 31°
2026-05-06 12:27 27.32221 75.57297 38826 ft 473 kts 32°
2026-05-06 12:28 27.37321 75.61993 38801 ft 474 kts 32°
2026-05-06 12:28 27.39868 75.64340 38572 ft 473 kts 32°
2026-05-06 12:28 27.42413 75.66690 37960 ft 475 kts 32°
2026-05-06 12:29 27.44971 75.69050 37323 ft 476 kts 32°
2026-05-06 12:29 27.47535 75.71414 36691 ft 477 kts 32°
2026-05-06 12:29 27.50076 75.73756 35925 ft 481 kts 32°
2026-05-06 12:29 27.52674 75.76150 35199 ft 484 kts 32°
2026-05-06 12:30 27.55267 75.78550 34737 ft 480 kts 32°
2026-05-06 12:30 27.57841 75.80936 34175 ft 479 kts 32°
2026-05-06 12:30 27.60409 75.83315 33607 ft 477 kts 32°
2026-05-06 12:30 27.62962 75.85683 33063 ft 473 kts 32°
2026-05-06 12:31 27.65487 75.88041 32551 ft 469 kts 32°
2026-05-06 12:31 27.67937 75.90378 32016 ft 466 kts 33°
2026-05-06 12:31 27.70380 75.92747 31572 ft 460 kts 34°
2026-05-06 12:31 27.72786 75.95098 31027 ft 456 kts 34°
2026-05-06 12:32 27.75163 75.97426 30588 ft 450 kts 34°
2026-05-06 12:32 27.77522 75.99726 30131 ft 445 kts 34°
2026-05-06 12:32 27.79941 76.01773 29950 ft 422 kts 23°
2026-05-06 12:32 27.82551 76.03049 29814 ft 398 kts
2026-05-06 12:33 27.85210 76.03558 29473 ft 381 kts 358°
2026-05-06 12:33 27.87840 76.03753 29012 ft 377 kts 358°
2026-05-06 12:33 27.90448 76.03939 28540 ft 374 kts 358°
2026-05-06 12:33 27.92999 76.04120 28080 ft 371 kts 358°
2026-05-06 12:34 27.95564 76.04306 27632 ft 368 kts 358°
2026-05-06 12:34 27.98112 76.04493 27199 ft 366 kts 358°
2026-05-06 12:34 28.00645 76.04684 26776 ft 363 kts 358°
2026-05-06 12:34 28.03157 76.04873 26357 ft 361 kts 358°
2026-05-06 12:35 28.05657 76.05063 25929 ft 358 kts 358°
2026-05-06 12:35 28.08136 76.05250 25512 ft 356 kts 358°
2026-05-06 12:35 28.10600 76.05436 25092 ft 354 kts 358°
2026-05-06 12:35 28.13016 76.05617 24687 ft 352 kts 358°
2026-05-06 12:36 28.15449 76.05799 24269 ft 350 kts 358°
2026-05-06 12:36 28.17870 76.06031 23846 ft 350 kts
2026-05-06 12:36 28.20229 76.06796 23451 ft 357 kts 17°
2026-05-06 12:36 28.22395 76.08211 22988 ft 364 kts 31°
2026-05-06 12:37 28.24226 76.10231 22515 ft 372 kts 45°
2026-05-06 12:37 28.25599 76.12754 22025 ft 379 kts 57°
2026-05-06 12:37 28.26777 76.15424 21569 ft 378 kts 58°
2026-05-06 12:37 28.27948 76.18081 21115 ft 375 kts 58°
2026-05-06 12:38 28.29111 76.20719 20693 ft 373 kts 58°
2026-05-06 12:38 28.30254 76.23306 20284 ft 370 kts 58°
2026-05-06 12:38 28.31404 76.25908 19868 ft 368 kts 58°
2026-05-06 12:38 28.32549 76.28496 19441 ft 365 kts 58°
2026-05-06 12:39 28.33684 76.31063 19040 ft 363 kts 58°
2026-05-06 12:39 28.34815 76.33615 18645 ft 361 kts 58°
2026-05-06 12:39 28.35937 76.36152 18249 ft 359 kts 58°
2026-05-06 12:39 28.37050 76.38675 17842 ft 356 kts 58°
2026-05-06 12:40 28.38154 76.41186 17400 ft 354 kts 58°
2026-05-06 12:40 28.39252 76.43684 16969 ft 353 kts 58°
2026-05-06 12:40 28.40329 76.46133 16558 ft 351 kts 58°
2026-05-06 12:40 28.41419 76.48608 16146 ft 349 kts 58°
2026-05-06 12:41 28.42503 76.51069 15746 ft 348 kts 58°
2026-05-06 12:41 28.43579 76.53515 15493 ft 346 kts 59°
2026-05-06 12:41 28.44655 76.55967 15248 ft 346 kts 59°
2026-05-06 12:41 28.45729 76.58417 15005 ft 346 kts 59°
2026-05-06 12:42 28.46798 76.60859 14783 ft 345 kts 59°
2026-05-06 12:42 28.47865 76.63298 14541 ft 344 kts 59°
2026-05-06 12:42 28.48926 76.65729 14303 ft 343 kts 59°
2026-05-06 12:42 28.49971 76.68121 14073 ft 342 kts 59°
2026-05-06 12:43 28.50904 76.70619 13841 ft 345 kts 69°
2026-05-06 12:43 28.51370 76.73300 13612 ft 348 kts 83°
2026-05-06 12:43 28.51320 76.76052 13355 ft 350 kts 96°
2026-05-06 12:43 28.50807 76.78757 13101 ft 349 kts 103°
2026-05-06 12:44 28.50226 76.81431 12842 ft 348 kts 103°
2026-05-06 12:44 28.49653 76.84089 12598 ft 346 kts 103°
2026-05-06 12:44 28.49087 76.86739 12265 ft 345 kts 103°
2026-05-06 12:44 28.48520 76.89416 11356 ft 360 kts 103°
2026-05-06 12:45 28.47924 76.92237 10360 ft 375 kts 103°
2026-05-06 12:45 28.47316 76.95107 9916 ft 363 kts 103°
2026-05-06 12:45 28.46213 77.00263 9852 ft 320 kts 104°
2026-05-06 12:46 28.45689 77.02679 9737 ft 311 kts 104°
2026-05-06 12:46 28.45178 77.05030 9612 ft 302 kts 104°
2026-05-06 12:46 28.44684 77.07314 9491 ft 294 kts 104°
2026-05-06 12:46 28.44205 77.09539 9362 ft 286 kts 103°
2026-05-06 12:47 28.43748 77.11672 9241 ft 277 kts 103°
2026-05-06 12:47 28.43300 77.13769 9111 ft 269 kts 103°
2026-05-06 12:47 28.42865 77.15802 8984 ft 261 kts 103°
2026-05-06 12:47 28.42441 77.17773 8857 ft 253 kts 103°
2026-05-06 12:48 28.42029 77.19684 8732 ft 245 kts 103°
2026-05-06 12:48 28.41630 77.21539 8606 ft 238 kts 103°
2026-05-06 12:48 28.41242 77.23339 8467 ft 232 kts 103°
2026-05-06 12:48 28.40861 77.25104 8258 ft 229 kts 103°
2026-05-06 12:49 28.40494 77.26784 8160 ft 215 kts 103°
2026-05-06 12:49 28.40145 77.28394 8027 ft 205 kts 103°
2026-05-06 12:49 28.39804 77.29933 7755 ft 203 kts 103°
2026-05-06 12:49 28.39437 77.31552 7105 ft 220 kts 103°
2026-05-06 12:50 28.39041 77.33295 6434 ft 234 kts 103°
2026-05-06 12:50 28.38627 77.35117 5765 ft 245 kts 103°
2026-05-06 12:50 28.38256 77.37064 5087 ft 259 kts 90°
2026-05-06 12:50 28.38713 77.38978 4717 ft 252 kts 52°
2026-05-06 12:51 28.40038 77.40135 4396 ft 244 kts 15°
2026-05-06 12:51 28.41686 77.40121 4050 ft 239 kts 339°
2026-05-06 12:51 28.42986 77.39010 3787 ft 234 kts 304°
2026-05-06 12:51 28.43500 77.37350 3659 ft 217 kts 276°
2026-05-06 12:52 28.43709 77.35692 3188 ft 215 kts 295°
2026-05-06 12:52 28.44614 77.34347 2700 ft 213 kts 321°
2026-05-06 12:52 28.45814 77.33466 2619 ft 199 kts 331°
2026-05-06 12:52 28.46950 77.32705 2594 ft 179 kts 329°
2026-05-06 12:53 28.47932 77.32016 2608 ft 153 kts 329°
2026-05-06 12:53 28.48790 77.31406 2596 ft 143 kts 329°
2026-05-06 12:53 28.49544 77.30696 2600 ft 141 kts 312°
2026-05-06 12:53 28.49957 77.29701 2597 ft 141 kts 287°
2026-05-06 12:54 28.50245 77.28639 2597 ft 141 kts 289°
2026-05-06 12:54 28.50510 77.27571 2599 ft 140 kts 287°
2026-05-06 12:54 28.50758 77.26499 2599 ft 140 kts 287°
2026-05-06 12:54 28.50998 77.25424 2601 ft 140 kts 287°
2026-05-06 12:55 28.51234 77.24348 2596 ft 140 kts 287°
2026-05-06 12:55 28.51469 77.23271 2599 ft 141 kts 287°
2026-05-06 12:55 28.51701 77.22197 2602 ft 138 kts 287°
2026-05-06 12:55 28.51926 77.21159 2530 ft 136 kts 287°
2026-05-06 12:56 28.52150 77.20123 2408 ft 134 kts 288°
2026-05-06 12:56 28.52372 77.19093 2256 ft 134 kts 288°
2026-05-06 12:56 28.52594 77.18064 2091 ft 134 kts 287°
2026-05-06 12:56 28.52815 77.17037 1931 ft 133 kts 288°
2026-05-06 12:57 28.53034 77.16020 1771 ft 134 kts 288°
2026-05-06 12:57 28.53256 77.14992 1604 ft 134 kts 288°
2026-05-06 12:57 28.53477 77.13964 1435 ft 134 kts 286°
2026-05-06 12:57 28.53698 77.12939 1261 ft 137 kts 285°
2026-05-06 12:58 28.53924 77.11887 1081 ft 138 kts 285°
2026-05-06 12:58 28.54151 77.10832 900 ft 137 kts 285°
2026-05-06 12:58 28.54375 77.09788 774 ft 129 kts 284°
2026-05-06 12:58 28.54537 77.09034 759 ft 57 kts 284°
2026-05-06 12:59 28.54571 77.08875 755 ft 13 kts 284°
2026-05-06 12:59 28.54624 77.08631 756 ft 48 kts 285°
2026-05-06 12:59 28.54838 77.08286 749 ft 35 kts 317°
2026-05-06 12:59 28.54952 77.08119 746 ft 25 kts 289°
2026-05-06 13:00 28.54993 77.07960 745 ft 29 kts 287°
2026-05-06 13:00 28.55031 77.07785 741 ft 13 kts 286°
2026-05-06 13:00 28.55131 77.07695 741 ft 18 kts
2026-05-06 13:00 28.55228 77.07746 741 ft 20 kts 17°
2026-05-06 13:01 28.55395 77.07801 740 ft 28 kts 16°
2026-05-06 13:01 28.55551 77.07847 738 ft 17 kts 14°
2026-05-06 13:01 28.55723 77.07897 736 ft 35 kts 15°
2026-05-06 13:01 28.55891 77.07948 734 ft 19 kts 15°
2026-05-06 13:02 28.56073 77.08002 732 ft 31 kts 14°
2026-05-06 13:02 28.56281 77.08064 731 ft 29 kts 15°
2026-05-06 13:02 28.56360 77.08161 730 ft 8 kts 92°
2026-05-06 13:02 28.56445 77.08160 730 ft 23 kts 315°
2026-05-06 13:03 28.56554 77.08206 731 ft 26 kts 81°
2026-05-06 13:03 28.56551 77.08383 731 ft 34 kts 105°
2026-05-06 13:03 28.56491 77.08664 733 ft 33 kts 103°
2026-05-06 13:03 28.56439 77.08909 737 ft 32 kts 104°
2026-05-06 13:04 28.56378 77.09161 741 ft 35 kts 105°
2026-05-06 13:04 28.56318 77.09415 745 ft 36 kts 105°
2026-05-06 13:04 28.56257 77.09680 749 ft 29 kts 104°
2026-05-06 13:04 28.56279 77.09908 752 ft 30 kts 78°
2026-05-06 13:05 28.56318 77.10154 756 ft 33 kts 87°
2026-05-06 13:05 28.56282 77.10417 760 ft 34 kts 103°
2026-05-06 13:05 28.56226 77.10684 763 ft 35 kts 102°
2026-05-06 13:05 28.56221 77.10945 767 ft 29 kts 77°
2026-05-06 13:06 28.56261 77.11169 770 ft 28 kts 101°
2026-05-06 13:06 28.56217 77.11384 774 ft 28 kts 108°
2026-05-06 13:06 28.56149 77.11565 776 ft 22 kts 86°
2026-05-06 13:06 28.56202 77.11698 779 ft 14 kts 31°
2026-05-06 13:07 28.56267 77.11700 779 ft 7 kts 350°
2026-05-06 13:07 28.56269 77.11699 779 ft 0 kts 351°